Back to catalog

STARLINK-37770

AliveCommunicationsSSO
NORAD 69225·PAYLOAD·🇺🇸 United States

Launched May 26, 2026 from Vandenberg Space Force Base

Loading…

Next Passes (next 24 hours)

TLE

FreshSource: CelesTrak SupGP

Epoch: Sep 14, 2026, 14:31 UTC

1 69225C 26115Q   26257.60534722 -.00033854  00000+0 -10508-2 0  2577
2 69225  97.2833 273.8045 0001752  99.9336  66.8523 15.33460675    12

Track STARLINK-37770 in real time with AllMySat

Download on the App Store